Year,Month,Day,Hour,Minute,Value (Times are PST for temperature in C)
2015,07,03,00,00,23.40
2015,07,03,00,01,23.40
2015,07,03,00,02,23.30
2015,07,03,00,03,23.30
2015,07,03,00,04,23.30
2015,07,03,00,05,23.30
2015,07,03,00,06,23.30
2015,07,03,00,07,23.30
2015,07,03,00,08,23.30
2015,07,03,00,09,23.30
2015,07,03,00,10,23.20
2015,07,03,00,11,23.20
2015,07,03,00,12,23.30
2015,07,03,00,13,23.30
2015,07,03,00,14,23.30
2015,07,03,00,15,23.30
2015,07,03,00,16,23.20
2015,07,03,00,17,23.20
2015,07,03,00,18,23.20
2015,07,03,00,19,23.20
2015,07,03,00,20,23.20
2015,07,03,00,21,23.20
2015,07,03,00,22,23.20
2015,07,03,00,23,23.20
2015,07,03,00,24,23.20
2015,07,03,00,25,23.20
2015,07,03,00,26,23.20
2015,07,03,00,27,23.20
2015,07,03,00,28,23.20
2015,07,03,00,29,23.20
2015,07,03,00,30,23.10
2015,07,03,00,31,23.10
2015,07,03,00,32,23.10
2015,07,03,00,33,23.10
2015,07,03,00,34,23.10
2015,07,03,00,35,23.10
2015,07,03,00,36,23.10
2015,07,03,00,37,23.00
2015,07,03,00,38,23.00
2015,07,03,00,39,23.00
2015,07,03,00,40,23.00
2015,07,03,00,41,22.90
2015,07,03,00,42,22.90
2015,07,03,00,43,22.90
2015,07,03,00,44,22.90
2015,07,03,00,45,22.90
2015,07,03,00,46,22.80
2015,07,03,00,47,22.80
2015,07,03,00,48,22.80
2015,07,03,00,49,22.80
2015,07,03,00,50,22.80
2015,07,03,00,51,22.80
2015,07,03,00,52,22.80
2015,07,03,00,53,22.80
2015,07,03,00,54,22.80
2015,07,03,00,55,22.70
2015,07,03,00,56,22.70
2015,07,03,00,57,22.70
2015,07,03,00,58,22.70
2015,07,03,00,59,22.60
2015,07,03,01,00,22.60
2015,07,03,01,01,22.60
2015,07,03,01,02,22.60
2015,07,03,01,03,22.50
2015,07,03,01,04,22.50
2015,07,03,01,05,22.50
2015,07,03,01,07,22.40
2015,07,03,01,08,22.40
2015,07,03,01,09,22.40
2015,07,03,01,10,22.30
2015,07,03,01,11,22.30
2015,07,03,01,12,22.30
2015,07,03,01,13,22.30
2015,07,03,01,14,22.30
2015,07,03,01,15,22.30
2015,07,03,01,16,22.30
2015,07,03,01,17,22.30
2015,07,03,01,18,22.30
2015,07,03,01,19,22.30
2015,07,03,01,20,22.20
2015,07,03,01,21,22.20
2015,07,03,01,22,22.20
2015,07,03,01,23,22.20
2015,07,03,01,24,22.10
2015,07,03,01,25,22.10
2015,07,03,01,26,22.10
2015,07,03,01,27,22.00
2015,07,03,01,28,21.90
2015,07,03,01,29,21.90
2015,07,03,01,30,21.90
2015,07,03,01,31,21.90
2015,07,03,01,32,21.80
2015,07,03,01,33,21.80
2015,07,03,01,34,21.80
2015,07,03,01,35,21.70
2015,07,03,01,36,21.70
2015,07,03,01,37,21.70
2015,07,03,01,38,21.60
2015,07,03,01,39,21.60
2015,07,03,01,40,21.60
2015,07,03,01,41,21.60
2015,07,03,01,42,21.60
2015,07,03,01,43,21.50
2015,07,03,01,44,21.50
2015,07,03,01,45,21.50
2015,07,03,01,46,21.50
2015,07,03,01,47,21.40
2015,07,03,01,48,21.40
2015,07,03,01,49,21.40
2015,07,03,01,50,21.40
2015,07,03,01,51,21.40
2015,07,03,01,52,21.40
2015,07,03,01,53,21.40
2015,07,03,01,54,21.40
2015,07,03,01,55,21.40
2015,07,03,01,56,21.40
2015,07,03,01,57,21.40
2015,07,03,01,58,21.40
2015,07,03,01,59,21.40
2015,07,03,02,00,21.40
2015,07,03,02,01,21.40
2015,07,03,02,02,21.40
2015,07,03,02,03,21.40
2015,07,03,02,04,21.40
2015,07,03,02,05,21.40
2015,07,03,02,06,21.30
2015,07,03,02,07,21.30
2015,07,03,02,08,21.30
2015,07,03,02,09,21.30
2015,07,03,02,10,21.30
2015,07,03,02,11,21.30
2015,07,03,02,12,21.30
2015,07,03,02,13,21.30
2015,07,03,02,14,21.30
2015,07,03,02,15,21.30
2015,07,03,02,16,21.30
2015,07,03,02,17,21.30
2015,07,03,02,18,21.30
2015,07,03,02,19,21.30
2015,07,03,02,20,21.30
2015,07,03,02,21,21.30
2015,07,03,02,22,21.30
2015,07,03,02,23,21.30
2015,07,03,02,24,21.30
2015,07,03,02,25,21.30
2015,07,03,02,26,21.20
2015,07,03,02,27,21.20
2015,07,03,02,28,21.20
2015,07,03,02,29,21.20
2015,07,03,02,30,21.20
2015,07,03,02,31,21.20
2015,07,03,02,32,21.20
2015,07,03,02,33,21.20
2015,07,03,02,34,21.20
2015,07,03,02,35,21.10
2015,07,03,02,36,21.10
2015,07,03,02,37,21.10
2015,07,03,02,38,21.10
2015,07,03,02,39,21.10
2015,07,03,02,40,21.10
2015,07,03,02,41,21.10
2015,07,03,02,42,21.00
2015,07,03,02,43,21.00
2015,07,03,02,44,20.90
2015,07,03,02,45,20.90
2015,07,03,02,46,20.90
2015,07,03,02,47,20.90
2015,07,03,02,48,20.90
2015,07,03,02,49,20.90
2015,07,03,02,50,20.90
2015,07,03,02,51,20.90
2015,07,03,02,52,20.90
2015,07,03,02,53,20.80
2015,07,03,02,54,20.80
2015,07,03,02,55,20.80
2015,07,03,02,56,20.80
2015,07,03,02,57,20.80
2015,07,03,02,58,20.70
2015,07,03,02,59,20.70
2015,07,03,03,00,20.70
2015,07,03,03,01,20.60
2015,07,03,03,02,20.60
2015,07,03,03,03,20.60
2015,07,03,03,04,20.60
2015,07,03,03,05,20.50
2015,07,03,03,06,20.50
2015,07,03,03,07,20.40
2015,07,03,03,08,20.40
2015,07,03,03,09,20.40
2015,07,03,03,10,20.40
2015,07,03,03,11,20.30
2015,07,03,03,12,20.30
2015,07,03,03,13,20.30
2015,07,03,03,14,20.30
2015,07,03,03,15,20.30
2015,07,03,03,16,20.30
2015,07,03,03,17,20.20
2015,07,03,03,18,20.20
2015,07,03,03,19,20.20
2015,07,03,03,20,20.20
2015,07,03,03,21,20.20
2015,07,03,03,22,20.10
2015,07,03,03,23,20.10
2015,07,03,03,24,20.10
2015,07,03,03,25,20.10
2015,07,03,03,26,20.10
2015,07,03,03,27,20.10
2015,07,03,03,28,20.00
2015,07,03,03,29,20.00
2015,07,03,03,30,20.00
2015,07,03,03,31,20.00
2015,07,03,03,32,20.00
2015,07,03,03,33,19.90
2015,07,03,03,34,19.90
2015,07,03,03,35,19.90
2015,07,03,03,36,19.90
2015,07,03,03,37,19.90
2015,07,03,03,38,19.90
2015,07,03,03,39,19.90
2015,07,03,03,40,19.90
2015,07,03,03,41,19.90
2015,07,03,03,42,19.80
2015,07,03,03,43,19.80
2015,07,03,03,44,19.80
2015,07,03,03,45,19.80
2015,07,03,03,46,19.70
2015,07,03,03,47,19.70
2015,07,03,03,48,19.70
2015,07,03,03,49,19.70
2015,07,03,03,50,19.70
2015,07,03,03,51,19.70
2015,07,03,03,52,19.70
2015,07,03,03,53,19.70
2015,07,03,03,54,19.70
2015,07,03,03,55,19.80
2015,07,03,03,56,19.80
2015,07,03,03,57,19.90
2015,07,03,03,58,19.90
2015,07,03,03,59,20.00
2015,07,03,04,00,20.00
2015,07,03,04,01,20.00
2015,07,03,04,02,20.10
2015,07,03,04,03,20.00
2015,07,03,04,04,20.00
2015,07,03,04,05,20.00
2015,07,03,04,06,20.00
2015,07,03,04,07,19.90
2015,07,03,04,08,19.90
2015,07,03,04,09,19.90
2015,07,03,04,10,19.80
2015,07,03,04,11,19.80
2015,07,03,04,12,19.80
2015,07,03,04,13,19.70
2015,07,03,04,14,19.70
2015,07,03,04,15,19.70
2015,07,03,04,16,19.60
2015,07,03,04,17,19.60
2015,07,03,04,18,19.60
2015,07,03,04,19,19.50
2015,07,03,04,20,19.50
2015,07,03,04,21,19.50
2015,07,03,04,22,19.50
2015,07,03,04,23,19.50
2015,07,03,04,24,19.50
2015,07,03,04,25,19.40
2015,07,03,04,26,19.40
2015,07,03,04,27,19.40
2015,07,03,04,28,19.40
2015,07,03,04,29,19.40
2015,07,03,04,30,19.30
2015,07,03,04,31,19.30
2015,07,03,04,32,19.30
2015,07,03,04,33,19.30
2015,07,03,04,34,19.30
2015,07,03,04,35,19.30
2015,07,03,04,36,19.20
2015,07,03,04,37,19.20
2015,07,03,04,38,19.20
2015,07,03,04,39,19.20
2015,07,03,04,40,19.20
2015,07,03,04,41,19.20
2015,07,03,04,42,19.20
2015,07,03,04,43,19.20
2015,07,03,04,44,19.20
2015,07,03,04,45,19.20
2015,07,03,04,46,19.20
2015,07,03,04,47,19.30
2015,07,03,04,48,19.30
2015,07,03,04,49,19.30
2015,07,03,04,50,19.30
2015,07,03,04,51,19.30
2015,07,03,04,52,19.30
2015,07,03,04,53,19.20
2015,07,03,04,54,19.20
2015,07,03,04,55,19.20
2015,07,03,04,56,19.20
2015,07,03,04,57,19.20
2015,07,03,04,58,19.10
2015,07,03,04,59,19.10
2015,07,03,05,00,19.10
2015,07,03,05,01,19.00
2015,07,03,05,02,19.00
2015,07,03,05,03,18.90
2015,07,03,05,04,18.90
2015,07,03,05,05,18.90
2015,07,03,05,06,18.90
2015,07,03,05,07,18.80
2015,07,03,05,08,18.80
2015,07,03,05,09,18.80
2015,07,03,05,10,18.80
2015,07,03,05,11,18.80
2015,07,03,05,12,18.80
2015,07,03,05,13,18.80
2015,07,03,05,14,18.80
2015,07,03,05,15,18.80
2015,07,03,05,16,18.70
2015,07,03,05,17,18.70
2015,07,03,05,18,18.70
2015,07,03,05,19,18.70
2015,07,03,05,20,18.70
2015,07,03,05,21,18.70
2015,07,03,05,22,18.70
2015,07,03,05,23,18.70
2015,07,03,05,24,18.70
2015,07,03,05,25,18.60
2015,07,03,05,26,18.60
2015,07,03,05,27,18.60
2015,07,03,05,28,18.60
2015,07,03,05,29,18.60
2015,07,03,05,30,18.60
2015,07,03,05,31,18.60
2015,07,03,05,32,18.60
2015,07,03,05,33,18.60
2015,07,03,05,34,18.50
2015,07,03,05,35,18.50
2015,07,03,05,36,18.50
2015,07,03,05,37,18.50
2015,07,03,05,38,18.40
2015,07,03,05,39,18.40
2015,07,03,05,40,18.40
2015,07,03,05,41,18.40
2015,07,03,05,42,18.40
2015,07,03,05,43,18.30
2015,07,03,05,44,18.30
2015,07,03,05,45,18.30
2015,07,03,05,46,18.30
2015,07,03,05,47,18.30
2015,07,03,05,48,18.30
2015,07,03,05,49,18.30
2015,07,03,05,50,18.30
2015,07,03,05,51,18.30
2015,07,03,05,52,18.30
2015,07,03,05,53,18.30
2015,07,03,05,54,18.30
2015,07,03,05,55,18.30
2015,07,03,05,56,18.30
2015,07,03,05,57,18.30
2015,07,03,05,58,18.30
2015,07,03,05,59,18.30
2015,07,03,06,00,18.30
2015,07,03,06,01,18.30
2015,07,03,06,02,18.30
2015,07,03,06,03,18.30
2015,07,03,06,04,18.30
2015,07,03,06,05,18.30
2015,07,03,06,06,18.30
2015,07,03,06,07,18.40
2015,07,03,06,08,18.40
2015,07,03,06,09,18.40
2015,07,03,06,10,18.50
2015,07,03,06,11,18.60
2015,07,03,06,12,18.60
2015,07,03,06,13,18.60
2015,07,03,06,14,18.60
2015,07,03,06,15,18.70
2015,07,03,06,16,18.70
2015,07,03,06,17,18.80
2015,07,03,06,18,18.80
2015,07,03,06,19,18.80
2015,07,03,06,20,18.90
2015,07,03,06,21,19.00
2015,07,03,06,22,19.10
2015,07,03,06,23,19.10
2015,07,03,06,24,19.20
2015,07,03,06,25,19.20
2015,07,03,06,26,19.30
2015,07,03,06,27,19.30
2015,07,03,06,28,19.40
2015,07,03,06,29,19.40
2015,07,03,06,30,19.50
2015,07,03,06,31,19.60
2015,07,03,06,32,19.60
2015,07,03,06,33,19.70
2015,07,03,06,34,19.70
2015,07,03,06,35,19.80
2015,07,03,06,36,19.90
2015,07,03,06,37,19.90
2015,07,03,06,38,20.00
2015,07,03,06,39,20.00
2015,07,03,06,40,20.10
2015,07,03,06,41,20.10
2015,07,03,06,42,20.10
2015,07,03,06,43,20.10
2015,07,03,06,44,20.10
2015,07,03,06,45,20.10
2015,07,03,06,46,20.10
2015,07,03,06,47,20.20
2015,07,03,06,48,20.20
2015,07,03,06,49,20.30
2015,07,03,06,50,20.30
2015,07,03,06,51,20.40
2015,07,03,06,52,20.40
2015,07,03,06,53,20.40
2015,07,03,06,54,20.40
2015,07,03,06,55,20.40
2015,07,03,06,56,20.50
2015,07,03,06,57,20.60
2015,07,03,06,58,20.60
2015,07,03,06,59,20.60
2015,07,03,07,00,20.70
2015,07,03,07,01,20.70
2015,07,03,07,02,20.70
2015,07,03,07,03,20.70
2015,07,03,07,04,20.70
2015,07,03,07,05,20.70
2015,07,03,07,06,20.70
2015,07,03,07,07,20.80
2015,07,03,07,08,20.80
2015,07,03,07,09,20.80
2015,07,03,07,10,20.80
2015,07,03,07,11,20.80
2015,07,03,07,12,20.80
2015,07,03,07,13,20.80
2015,07,03,07,14,20.80
2015,07,03,07,15,20.80
2015,07,03,07,16,20.80
2015,07,03,07,17,20.80
2015,07,03,07,18,20.80
2015,07,03,07,19,20.80
2015,07,03,07,20,20.80
2015,07,03,07,21,20.80
2015,07,03,07,22,20.90
2015,07,03,07,23,20.90
2015,07,03,07,24,20.90
2015,07,03,07,25,20.90
2015,07,03,07,26,20.90
2015,07,03,07,27,20.90
2015,07,03,07,28,21.00
2015,07,03,07,29,21.10
2015,07,03,07,30,21.10
2015,07,03,07,31,21.10
2015,07,03,07,32,21.20
2015,07,03,07,33,21.20
2015,07,03,07,34,21.30
2015,07,03,07,35,21.30
2015,07,03,07,36,21.30
2015,07,03,07,37,21.30
2015,07,03,07,38,21.40
2015,07,03,07,39,21.40
2015,07,03,07,40,21.40
2015,07,03,07,41,21.50
2015,07,03,07,42,21.50
2015,07,03,07,43,21.60
2015,07,03,07,44,21.60
2015,07,03,07,45,21.70
2015,07,03,07,46,21.70
2015,07,03,07,47,21.80
2015,07,03,07,48,21.80
2015,07,03,07,49,21.80
2015,07,03,07,50,21.80
2015,07,03,07,51,21.80
2015,07,03,07,52,21.90
2015,07,03,07,53,21.90
2015,07,03,07,54,21.90
2015,07,03,07,55,22.00
2015,07,03,07,56,22.10
2015,07,03,07,57,22.20
2015,07,03,07,58,22.30
2015,07,03,07,59,22.30
2015,07,03,08,00,22.40
2015,07,03,08,01,22.40
2015,07,03,08,02,22.40
2015,07,03,08,03,22.40
2015,07,03,08,04,22.40
2015,07,03,08,05,22.40
2015,07,03,08,06,22.40
2015,07,03,08,07,22.40
2015,07,03,08,08,22.40
2015,07,03,08,09,22.40
2015,07,03,08,10,22.40
2015,07,03,08,11,22.40
2015,07,03,08,12,22.30
2015,07,03,08,13,22.30
2015,07,03,08,14,22.30
2015,07,03,08,15,22.30
2015,07,03,08,16,22.30
2015,07,03,08,17,22.30
2015,07,03,08,18,22.30
2015,07,03,08,19,22.30
2015,07,03,08,20,22.30
2015,07,03,08,21,22.30
2015,07,03,08,22,22.30
2015,07,03,08,23,22.40
2015,07,03,08,24,22.40
2015,07,03,08,25,22.40
2015,07,03,08,26,22.60
2015,07,03,08,27,22.60
2015,07,03,08,28,22.70
2015,07,03,08,29,22.80
2015,07,03,08,30,22.90
2015,07,03,08,31,23.00
2015,07,03,08,32,23.10
2015,07,03,08,33,23.20
2015,07,03,08,34,23.30
2015,07,03,08,35,23.40
2015,07,03,08,36,23.40
2015,07,03,08,37,23.50
2015,07,03,08,38,23.60
2015,07,03,08,39,23.60
2015,07,03,08,40,23.60
2015,07,03,08,41,23.60
2015,07,03,08,42,23.50
2015,07,03,08,43,23.50
2015,07,03,08,44,23.50
2015,07,03,08,45,23.40
2015,07,03,08,46,23.40
2015,07,03,08,47,23.40
2015,07,03,08,48,23.40
2015,07,03,08,49,23.30
2015,07,03,08,50,23.40
2015,07,03,08,51,23.40
2015,07,03,08,52,23.40
2015,07,03,08,53,23.50
2015,07,03,08,54,23.50
2015,07,03,08,55,23.60
2015,07,03,08,56,23.60
2015,07,03,08,57,23.60
2015,07,03,08,58,23.60
2015,07,03,08,59,23.60
2015,07,03,09,00,23.60
2015,07,03,09,01,23.70
2015,07,03,09,02,23.80
2015,07,03,09,03,23.90
2015,07,03,09,04,24.00
2015,07,03,09,05,24.10
2015,07,03,09,06,24.20
2015,07,03,09,07,24.30
2015,07,03,09,08,24.30
2015,07,03,09,09,24.40
2015,07,03,09,10,24.40
2015,07,03,09,11,24.50
2015,07,03,09,12,24.60
2015,07,03,09,13,24.60
2015,07,03,09,14,24.70
2015,07,03,09,15,24.70
2015,07,03,09,16,24.70
2015,07,03,09,17,24.70
2015,07,03,09,18,24.70
2015,07,03,09,19,24.70
2015,07,03,09,20,24.80
2015,07,03,09,21,24.80
2015,07,03,09,22,24.90
2015,07,03,09,23,24.90
2015,07,03,09,24,25.00
2015,07,03,09,25,25.10
2015,07,03,09,26,25.20
2015,07,03,09,27,25.20
2015,07,03,09,28,25.30
2015,07,03,09,29,25.30
2015,07,03,09,30,25.30
2015,07,03,09,31,25.40
2015,07,03,09,32,25.40
2015,07,03,09,33,25.40
2015,07,03,09,34,25.50
2015,07,03,09,35,25.60
2015,07,03,09,37,25.60
2015,07,03,09,38,25.60
2015,07,03,09,39,25.60
2015,07,03,09,40,25.60
2015,07,03,09,41,25.70
2015,07,03,09,42,25.70
2015,07,03,09,43,25.80
2015,07,03,09,44,25.80
2015,07,03,09,45,25.90
2015,07,03,09,46,25.90
2015,07,03,09,47,25.90
2015,07,03,09,48,25.90
2015,07,03,09,49,25.90
2015,07,03,09,50,26.00
2015,07,03,09,51,26.10
2015,07,03,09,52,26.10
2015,07,03,09,53,26.20
2015,07,03,09,54,26.30
2015,07,03,09,55,26.30
2015,07,03,09,56,26.30
2015,07,03,09,57,26.30
2015,07,03,09,58,26.20
2015,07,03,09,59,26.20
2015,07,03,10,00,26.20
2015,07,03,10,01,26.20
2015,07,03,10,02,26.30
2015,07,03,10,03,26.30
2015,07,03,10,04,26.30
2015,07,03,10,05,26.40
2015,07,03,10,06,26.40
2015,07,03,10,07,26.50
2015,07,03,10,08,26.60
2015,07,03,10,09,26.60
2015,07,03,10,10,26.70
2015,07,03,10,11,26.70
2015,07,03,10,12,26.80
2015,07,03,10,13,26.80
2015,07,03,10,14,26.90
2015,07,03,10,15,26.90
2015,07,03,10,16,26.90
2015,07,03,10,17,27.00
2015,07,03,10,18,27.10
2015,07,03,10,19,27.20
2015,07,03,10,20,27.30
2015,07,03,10,21,27.40
2015,07,03,10,22,27.40
2015,07,03,10,23,27.40
2015,07,03,10,24,27.30
2015,07,03,10,25,27.20
2015,07,03,10,26,27.20
2015,07,03,10,27,27.20
2015,07,03,10,28,27.10
2015,07,03,10,29,27.10
2015,07,03,10,30,27.00
2015,07,03,10,31,27.00
2015,07,03,10,32,26.90
2015,07,03,10,33,27.00
2015,07,03,10,34,27.10
2015,07,03,10,35,27.20
2015,07,03,10,36,27.30
2015,07,03,10,37,27.30
2015,07,03,10,38,27.30
2015,07,03,10,39,27.30
2015,07,03,10,40,27.30
2015,07,03,10,41,27.30
2015,07,03,10,42,27.30
2015,07,03,10,43,27.30
2015,07,03,10,44,27.30
2015,07,03,10,45,27.30
2015,07,03,10,46,27.30
2015,07,03,10,47,27.30
2015,07,03,10,48,27.30
2015,07,03,10,49,27.30
2015,07,03,10,50,27.40
2015,07,03,10,51,27.40
2015,07,03,10,52,27.50
2015,07,03,10,53,27.60
2015,07,03,10,54,27.60
2015,07,03,10,55,27.70
2015,07,03,10,56,27.80
2015,07,03,10,57,27.80
2015,07,03,10,58,27.90
2015,07,03,10,59,27.90
2015,07,03,11,00,28.00
2015,07,03,11,01,28.00
2015,07,03,11,02,28.10
2015,07,03,11,03,28.20
2015,07,03,11,04,28.30
2015,07,03,11,05,28.40
2015,07,03,11,06,28.50
2015,07,03,11,07,28.60
2015,07,03,11,08,28.70
2015,07,03,11,09,28.80
2015,07,03,11,10,28.90
2015,07,03,11,11,29.10
2015,07,03,11,12,29.20
2015,07,03,11,13,29.30
2015,07,03,11,14,29.30
2015,07,03,11,15,29.40
2015,07,03,11,16,29.40
2015,07,03,11,17,29.60
2015,07,03,11,18,29.60
2015,07,03,11,19,29.60
2015,07,03,11,20,29.60
2015,07,03,11,21,29.70
2015,07,03,11,22,29.80
2015,07,03,11,23,29.90
2015,07,03,11,24,30.10
2015,07,03,11,25,30.20
2015,07,03,11,26,30.30
2015,07,03,11,27,30.30
2015,07,03,11,28,30.30
2015,07,03,11,29,30.20
2015,07,03,11,30,30.20
2015,07,03,11,31,30.20
2015,07,03,11,32,30.20
2015,07,03,11,33,30.20
2015,07,03,11,34,30.10
2015,07,03,11,35,30.20
2015,07,03,11,36,30.20
2015,07,03,11,37,30.30
2015,07,03,11,38,30.40
2015,07,03,11,39,30.50
2015,07,03,11,40,30.60
2015,07,03,11,41,30.70
2015,07,03,11,43,30.80
2015,07,03,11,44,30.80
2015,07,03,11,45,30.90
2015,07,03,11,46,31.00
2015,07,03,11,47,31.10
2015,07,03,11,48,31.20
2015,07,03,11,49,31.20
2015,07,03,11,50,31.20
2015,07,03,11,51,31.20
2015,07,03,11,52,31.30
2015,07,03,11,53,31.40
2015,07,03,11,54,31.50
2015,07,03,11,55,31.50
2015,07,03,11,56,31.40
2015,07,03,11,57,31.40
2015,07,03,11,58,31.30
2015,07,03,11,59,31.20
2015,07,03,12,00,31.20
2015,07,03,12,01,31.20
2015,07,03,12,02,31.20
2015,07,03,12,03,31.30
2015,07,03,12,04,31.40
2015,07,03,12,05,31.50
2015,07,03,12,06,31.60
2015,07,03,12,07,31.60
2015,07,03,12,08,31.60
2015,07,03,12,09,31.60
2015,07,03,12,10,31.50
2015,07,03,12,11,31.30
2015,07,03,12,12,31.30
2015,07,03,12,13,31.20
2015,07,03,12,14,31.10
2015,07,03,12,15,31.00
2015,07,03,12,16,30.90
2015,07,03,12,17,30.90
2015,07,03,12,18,30.90
2015,07,03,12,19,31.10
2015,07,03,12,20,31.20
2015,07,03,12,21,31.40
2015,07,03,12,22,31.60
2015,07,03,12,23,31.80
2015,07,03,12,24,31.90
2015,07,03,12,25,32.20
2015,07,03,12,26,32.30
2015,07,03,12,27,32.40
2015,07,03,12,28,32.40
2015,07,03,12,29,32.40
2015,07,03,12,30,32.40
2015,07,03,12,31,32.40
2015,07,03,12,32,32.40
2015,07,03,12,33,32.60
2015,07,03,12,34,32.60
2015,07,03,12,35,32.70
2015,07,03,12,36,32.70
2015,07,03,12,37,32.70
2015,07,03,12,38,32.80
2015,07,03,12,39,32.80
2015,07,03,12,40,32.90
2015,07,03,12,41,32.80
2015,07,03,12,42,32.70
2015,07,03,12,43,32.60
2015,07,03,12,44,32.60
2015,07,03,12,45,32.60
2015,07,03,12,46,32.60
2015,07,03,12,47,32.60
2015,07,03,12,48,32.70
2015,07,03,12,49,32.70
2015,07,03,12,50,32.80
2015,07,03,12,51,32.90
2015,07,03,12,52,33.10
2015,07,03,12,53,33.10
2015,07,03,12,54,33.10
2015,07,03,12,55,33.00
2015,07,03,12,56,33.00
2015,07,03,12,57,33.00
2015,07,03,12,58,32.90
2015,07,03,12,59,33.00
2015,07,03,13,00,33.10
2015,07,03,13,01,33.20
2015,07,03,13,02,33.20
2015,07,03,13,03,33.20
2015,07,03,13,04,33.30
2015,07,03,13,05,33.40
2015,07,03,13,06,33.50
2015,07,03,13,07,33.60
2015,07,03,13,08,33.70
2015,07,03,13,09,33.70
2015,07,03,13,10,33.80
2015,07,03,13,11,33.80
2015,07,03,13,12,33.90
2015,07,03,13,13,33.80
2015,07,03,13,14,33.80
2015,07,03,13,15,33.70
2015,07,03,13,16,33.80
2015,07,03,13,17,33.80
2015,07,03,13,18,33.90
2015,07,03,13,19,33.90
2015,07,03,13,20,33.90
2015,07,03,13,21,34.00
2015,07,03,13,22,34.20
2015,07,03,13,23,34.20
2015,07,03,13,24,34.30
2015,07,03,13,25,34.30
2015,07,03,13,26,34.30
2015,07,03,13,27,34.30
2015,07,03,13,28,34.40
2015,07,03,13,29,34.40
2015,07,03,13,30,34.60
2015,07,03,13,31,34.60
2015,07,03,13,32,34.50
2015,07,03,13,33,34.40
2015,07,03,13,34,34.40
2015,07,03,13,35,34.50
2015,07,03,13,36,34.60
2015,07,03,13,37,34.60
2015,07,03,13,38,34.70
2015,07,03,13,39,34.70
2015,07,03,13,40,34.80
2015,07,03,13,41,34.80
2015,07,03,13,42,34.90
2015,07,03,13,43,34.90
2015,07,03,13,44,34.90
2015,07,03,13,45,34.90
2015,07,03,13,46,34.90
2015,07,03,13,47,34.90
2015,07,03,13,48,34.80
2015,07,03,13,49,34.80
2015,07,03,13,50,34.80
2015,07,03,13,51,34.80
2015,07,03,13,52,34.90
2015,07,03,13,53,35.00
2015,07,03,13,54,35.10
2015,07,03,13,55,35.20
2015,07,03,13,56,35.20
2015,07,03,13,57,35.20
2015,07,03,13,58,35.10
2015,07,03,13,59,35.10
2015,07,03,14,00,35.10
2015,07,03,14,01,35.10
2015,07,03,14,02,35.10
2015,07,03,14,03,35.10
2015,07,03,14,04,35.20
2015,07,03,14,05,35.20
2015,07,03,14,06,35.20
2015,07,03,14,07,35.20
2015,07,03,14,08,35.10
2015,07,03,14,09,34.90
2015,07,03,14,10,34.70
2015,07,03,14,11,34.40
2015,07,03,14,12,34.30
2015,07,03,14,13,34.30
2015,07,03,14,14,34.30
2015,07,03,14,15,34.40
2015,07,03,14,16,34.50
2015,07,03,14,17,34.70
2015,07,03,14,18,34.80
2015,07,03,14,19,34.90
2015,07,03,14,20,35.00
2015,07,03,14,21,35.00
2015,07,03,14,22,34.90
2015,07,03,14,23,34.90
2015,07,03,14,24,34.90
2015,07,03,14,25,34.80
2015,07,03,14,26,34.70
2015,07,03,14,27,34.60
2015,07,03,14,29,34.40
2015,07,03,14,30,34.40
2015,07,03,14,31,34.30
2015,07,03,14,32,34.30
2015,07,03,14,33,34.30
2015,07,03,14,34,34.40
2015,07,03,14,35,34.60
2015,07,03,14,36,34.60
2015,07,03,14,37,34.60
2015,07,03,14,38,34.60
2015,07,03,14,39,34.40
2015,07,03,14,40,34.40
2015,07,03,14,41,34.50
2015,07,03,14,42,34.60
2015,07,03,14,43,34.70
2015,07,03,14,44,34.80
2015,07,03,14,45,34.80
2015,07,03,14,46,34.90
2015,07,03,14,47,34.90
2015,07,03,14,48,34.90
2015,07,03,14,49,35.10
2015,07,03,14,50,35.10
2015,07,03,14,51,35.20
2015,07,03,14,52,35.30
2015,07,03,14,53,35.30
2015,07,03,14,54,35.50
2015,07,03,14,55,35.60
2015,07,03,14,56,35.70
2015,07,03,14,57,35.80
2015,07,03,14,58,35.80
2015,07,03,14,59,35.90
2015,07,03,15,00,35.90
2015,07,03,15,01,36.00
2015,07,03,15,02,35.90
2015,07,03,15,03,35.90
2015,07,03,15,04,36.00
2015,07,03,15,05,36.10
2015,07,03,15,06,36.10
2015,07,03,15,07,36.00
2015,07,03,15,08,35.90
2015,07,03,15,09,35.80
2015,07,03,15,10,35.70
2015,07,03,15,11,35.70
2015,07,03,15,12,35.70
2015,07,03,15,13,35.70
2015,07,03,15,14,35.60
2015,07,03,15,15,35.40
2015,07,03,15,16,35.30
2015,07,03,15,17,35.30
2015,07,03,15,18,35.30
2015,07,03,15,19,35.40
2015,07,03,15,20,35.50
2015,07,03,15,21,35.70
2015,07,03,15,22,35.70
2015,07,03,15,23,35.60
2015,07,03,15,24,35.60
2015,07,03,15,25,35.70
2015,07,03,15,26,35.70
2015,07,03,15,27,35.80
2015,07,03,15,28,35.90
2015,07,03,15,29,35.90
2015,07,03,15,30,35.90
2015,07,03,15,31,36.00
2015,07,03,15,32,36.00
2015,07,03,15,33,36.00
2015,07,03,15,34,36.10
2015,07,03,15,35,36.10
2015,07,03,15,36,36.10
2015,07,03,15,37,36.10
2015,07,03,15,38,36.10
2015,07,03,15,39,36.20
2015,07,03,15,40,36.20
2015,07,03,15,41,36.30
2015,07,03,15,42,36.40
2015,07,03,15,43,36.50
2015,07,03,15,44,36.50
2015,07,03,15,45,36.60
2015,07,03,15,46,36.50
2015,07,03,15,47,36.30
2015,07,03,15,48,36.10
2015,07,03,15,49,35.80
2015,07,03,15,50,35.50
2015,07,03,15,51,35.20
2015,07,03,15,52,34.80
2015,07,03,15,53,34.50
2015,07,03,15,54,34.10
2015,07,03,15,55,33.80
2015,07,03,15,56,33.70
2015,07,03,15,57,33.60
2015,07,03,15,58,33.40
2015,07,03,15,59,33.30
2015,07,03,16,00,33.30
2015,07,03,16,01,33.20
2015,07,03,16,02,33.10
2015,07,03,16,03,33.10
2015,07,03,16,04,33.10
2015,07,03,16,05,33.10
2015,07,03,16,06,33.10
2015,07,03,16,07,33.10
2015,07,03,16,08,33.20
2015,07,03,16,10,33.20
2015,07,03,16,11,33.20
2015,07,03,16,12,33.10
2015,07,03,16,13,33.10
2015,07,03,16,14,33.10
2015,07,03,16,15,33.10
2015,07,03,16,16,33.30
2015,07,03,16,17,33.30
2015,07,03,16,18,33.30
2015,07,03,16,19,33.30
2015,07,03,16,20,33.20
2015,07,03,16,21,33.20
2015,07,03,16,22,33.10
2015,07,03,16,23,33.10
2015,07,03,16,24,33.20
2015,07,03,16,25,33.20
2015,07,03,16,26,33.30
2015,07,03,16,27,33.20
2015,07,03,16,28,33.10
2015,07,03,16,29,33.00
2015,07,03,16,30,32.90
2015,07,03,16,31,32.80
2015,07,03,16,32,32.80
2015,07,03,16,34,32.60
2015,07,03,16,35,32.60
2015,07,03,16,36,32.50
2015,07,03,16,37,32.50
2015,07,03,16,38,32.40
2015,07,03,16,39,32.40
2015,07,03,16,40,32.40
2015,07,03,16,41,32.40
2015,07,03,16,42,32.40
2015,07,03,16,43,32.50
2015,07,03,16,44,32.60
2015,07,03,16,45,32.70
2015,07,03,16,46,32.70
2015,07,03,16,47,32.70
2015,07,03,16,48,32.70
2015,07,03,16,49,32.70
2015,07,03,16,50,32.70
2015,07,03,16,51,32.70
2015,07,03,16,52,32.70
2015,07,03,16,53,32.70
2015,07,03,16,54,32.60
2015,07,03,16,55,32.50
2015,07,03,16,56,32.40
2015,07,03,16,58,32.40
2015,07,03,16,59,32.40
2015,07,03,17,00,32.40
2015,07,03,17,01,32.40
2015,07,03,17,02,32.40
2015,07,03,17,03,32.40
2015,07,03,17,04,32.40
2015,07,03,17,05,32.40
2015,07,03,17,06,32.40
2015,07,03,17,07,32.40
2015,07,03,17,08,32.40
2015,07,03,17,09,32.50
2015,07,03,17,10,32.40
2015,07,03,17,11,32.40
2015,07,03,17,12,32.30
2015,07,03,17,13,32.20
2015,07,03,17,15,32.10
2015,07,03,17,16,32.10
2015,07,03,17,17,32.20
2015,07,03,17,18,32.20
2015,07,03,17,19,32.20
2015,07,03,17,20,32.20
2015,07,03,17,21,32.20
2015,07,03,17,22,32.20
2015,07,03,17,23,32.10
2015,07,03,17,24,32.10
2015,07,03,17,25,31.90
2015,07,03,17,26,31.80
2015,07,03,17,27,31.70